Content
SEND FEEDBACK

Daily
Averages
Monthly
Summary
France

LILLE, FRANCE


Home > Europe > France
Elevation: 171 feet     Latitude: 50 34N     Longitude: 003 06E

WEATHER
 
SELECT A DAY
Number of Records: 269,043;   Date Range: 7/1/96 - 7/30/14
 
SHARE

PRINT THIS DATA

[ ← Previous Day ]
WEATHER ALMANAC - MARCH 31, 2013
[ Next Day → ]
[ °C ]   °F
Weather ElementAverageHighLow
Temperature33.9 °F39.2 °F (3:00 pm)28.4 °F (4:00 am)
Dewpoint22.9 °F25 °F (1:00 am)19.4 °F (12:00 pm)
Humidity64.7 %86 % (4:00 am)37 % (8:00 pm)
Barometer29.91 in29.95 in (8:00 am)29.89 in (12:30 am)
Wind Speed7.9 mph12.7 mph (12:00 pm)
Weather ElementAverage
Visibility5.8 mi
Wind DirectionENE (66.7 °)

Weather ElementTotal
Precipitation---
Heating Degree Days31.2 (Base 65)
Averaged from 49 records on March 31, 2013
WEATHER CONDITIONS BREAKOUT
WIND DIRECTION BREAKOUT
WEATHER BY HOUR - MARCH 31, 2013
[ °C ]   °F
Local TimeTemperatureDewpointHumidityBarometerVisibilityWind DirectionWind SpeedGust SpeedPrecipitationEventsConditions
12:00 AM33.8 °F24.8 °F70 %29.89 inENE (60°)8.1 mphClear
12:30 AM32.0 °F24.8 °F75 %29.89 inNNE (20°)8.1 mphClear
1:00 AM30.2 °F24.8 °F80 %29.89 inNNE (30°)8.1 mphClear
1:00 AM31.0 °F25.0 °F72 %29.92 in9.0 miNNE (30°)8.1 mph
1:30 AM30.2 °F24.8 °F80 %29.89 in6.2 miNNE (20°)6.9 mph
3:00 AM30.2 °F24.8 °F80 %29.92 in5.6 miNorth (10°)5.8 mph
3:30 AM30.2 °F24.8 °F80 %29.92 in5.0 miNorth (360°)4.6 mph
4:00 AM28.4 °F24.8 °F86 %29.92 in4.3 miNorth (360°)4.6 mph
4:30 AM28.4 °F24.8 °F86 %29.92 in4.3 miNorth (10°)4.6 mphPartly Cloudy
5:00 AM30.2 °F24.8 °F80 %29.89 in3.7 miNNE (30°)4.6 mphMostly Cloudy
5:30 AM28.4 °F24.8 °F86 %29.89 in3.7 miNNE (30°)5.8 mph
6:17 AM30.2 °F24.8 °F80 %29.92 in3.7 miNNE (20°)5.8 mphPartly Cloudy
6:30 AM28.4 °F24.8 °F86 %29.92 in3.7 miNNE (20°)6.9 mphPartly Cloudy
7:00 AM28.4 °F24.8 °F86 %29.92 in3.7 miNNE (30°)6.9 mph
7:30 AM28.4 °F24.8 °F86 %29.92 in3.7 miNNE (30°)6.9 mph
8:00 AM29.0 °F25.0 °F79 %29.95 in4.0 miNNE (30°)6.9 mphPartly Cloudy
8:00 AM30.2 °F24.8 °F80 %29.92 in3.7 miNNE (30°)6.9 mph
8:30 AM30.2 °F24.8 °F80 %29.92 in4.3 miNE (40°)6.9 mph
9:00 AM32.0 °F24.8 °F75 %29.92 in4.3 miNE (50°)9.2 mph
9:30 AM32.0 °F24.8 °F75 %29.95 in5.0 miENE (60°)9.2 mphPartly Cloudy
10:00 AM33.8 °F23.0 °F65 %29.95 in6.2 miENE (60°)10.4 mphPartly Cloudy
10:30 AM33.8 °F23.0 °F65 %29.95 in6.2 miENE (60°)8.1 mphPartly Cloudy
11:00 AM33.8 °F21.2 °F60 %29.95 in6.2 miNE (50°)10.4 mphPartly Cloudy
12:00 PM35.6 °F19.4 °F52 %29.95 in6.2 miENE (70°)12.7 mphPartly Cloudy
12:30 PM35.6 °F19.4 °F52 %29.95 in6.2 miENE (60°)11.5 mphMostly Cloudy
1:00 PM37.4 °F21.2 °F52 %29.95 in6.2 miENE (60°)11.5 mphMostly Cloudy
1:30 PM35.6 °F23.0 °F60 %29.95 in6.2 miENE (70°)10.4 mphMostly Cloudy
2:00 PM37.0 °F23.0 °F45 %29.95 in12.0 miNE (50°)8.1 mphMostly Cloudy
2:00 PM37.4 °F23.0 °F56 %29.92 in6.2 miNE (50°)8.1 mphMostly Cloudy
2:30 PM37.4 °F21.2 °F52 %29.92 in6.2 miENE (60°)9.2 mphMostly Cloudy
3:00 PM39.2 °F23.0 °F52 %29.92 in6.2 miEast (80°)10.4 mphMostly Cloudy
3:30 PM37.4 °F23.0 °F56 %29.92 in6.2 miEast (80°)10.4 mphMostly Cloudy
4:00 PM37.4 °F23.0 °F56 %29.92 in6.2 miEast (80°)9.2 mphMostly Cloudy
4:30 PM39.2 °F21.2 °F49 %29.92 in6.2 miENE (70°)10.4 mphMostly Cloudy
5:00 PM39.2 °F21.2 °F49 %29.89 in6.2 miENE (70°)8.1 mphMostly Cloudy
5:30 PM39.2 °F21.2 °F49 %29.89 in6.2 miENE (70°)6.9 mphMostly Cloudy
6:00 PM39.2 °F21.2 °F49 %29.89 in6.2 miEast (90°)10.4 mphMostly Cloudy
6:30 PM37.4 °F19.4 °F48 %29.89 in6.2 miEast (100°)6.9 mphMostly Cloudy
7:00 PM37.4 °F19.4 °F48 %29.89 in6.2 miEast (90°)9.2 mphMostly Cloudy
7:30 PM37.4 °F19.4 °F48 %29.89 in6.2 miEast (80°)9.2 mphMostly Cloudy
8:00 PM37.0 °F20.0 °F37 %29.91 in12.0 miEast (80°)8.1 mphMostly Cloudy
8:00 PM37.4 °F21.2 °F52 %29.89 in6.2 miEast (80°)8.1 mphMostly Cloudy
8:30 PM37.4 °F21.2 °F52 %29.89 in6.2 miEast (90°)6.9 mphMostly Cloudy
9:00 PM35.6 °F21.2 °F56 %29.89 in6.2 miEast (100°)4.6 mphMostly Cloudy
9:30 PM35.6 °F21.2 °F56 %29.89 in6.2 miENE (60°)4.6 mphMostly Cloudy
10:00 PM35.6 °F21.2 °F56 %29.89 inNE (50°)3.5 mphClear
10:30 PM33.8 °F23.0 °F65 %29.89 inNE (40°)8.1 mphClear
11:00 PM33.8 °F23.0 °F65 %29.89 inNE (50°)8.1 mphClear
11:30 PM33.8 °F23.0 °F65 %29.89 inNE (50°)9.2 mphClear
Hourly data recorded from LFQQ, located miles away from Lille, France







STORIES FROM OUR PARTNERS